,,PA_Meas_PMT16A,,PR_Meas_QMR101_102,,RH_Meas_QMH101,,SR_Meas_QMS101,,TA_Meas_QMH101,,GenWind,,GenWind,
time,status,PA,status,PR,status,RH,status,SR,status,TA,status,DirAvg,status,SpdAvg,
2014-10-18, 00:00:04,VALID,917.315,VALID,0,VALID,97.6483,VALID,0,VALID,19.6443,VALID,142,VALID,0,
2014-10-18, 00:01:04,VALID,917.319,VALID,0,VALID,97.6636,VALID,0,VALID,19.6443,VALID,161,VALID,0,
2014-10-18, 00:02:04,VALID,917.312,VALID,0,VALID,97.656,VALID,0,VALID,19.6248,VALID,160,VALID,0,
2014-10-18, 00:03:04,VALID,917.278,VALID,0,VALID,97.656,VALID,0,VALID,19.6443,VALID,160,VALID,0,
2014-10-18, 00:04:04,VALID,917.243,VALID,0,VALID,97.6407,VALID,0,VALID,19.6443,VALID,160,VALID,0,
2014-10-18, 00:05:04,VALID,917.25,VALID,0,VALID,97.6483,VALID,0,VALID,19.6653,VALID,160,VALID,0,
2014-10-18, 00:06:04,VALID,917.256,VALID,0,VALID,97.6407,VALID,0,VALID,19.6443,VALID,160,VALID,0,
2014-10-18, 00:07:04,VALID,917.259,VALID,0,VALID,97.656,VALID,0,VALID,19.6443,VALID,160,VALID,0,
2014-10-18, 00:08:04,VALID,917.253,VALID,0,VALID,97.6407,VALID,0,VALID,19.6638,VALID,160,VALID,0,
2014-10-18, 00:09:04,VALID,917.237,VALID,0,VALID,97.6407,VALID,0,VALID,19.6443,VALID,160,VALID,0,
2014-10-18, 00:10:04,VALID,917.249,VALID,0,VALID,97.6255,VALID,0,VALID,19.6638,VALID,160,VALID,0,
2014-10-18, 00:11:04,VALID,917.27,VALID,0,VALID,97.6483,VALID,0,VALID,19.6638,VALID,160,VALID,0,
2014-10-18, 00:12:04,VALID,917.275,VALID,0,VALID,97.6255,VALID,0,VALID,19.6833,VALID,160,VALID,0,
2014-10-18, 00:13:04,VALID,917.256,VALID,0,VALID,97.6255,VALID,0,VALID,19.7028,VALID,160,VALID,0,
2014-10-18, 00:14:04,VALID,917.262,VALID,0,VALID,97.6407,VALID,0,VALID,19.6833,VALID,160,VALID,0,
2014-10-18, 00:15:04,VALID,917.299,VALID,0,VALID,97.6255,VALID,0,VALID,19.7028,VALID,160,VALID,0,
2014-10-18, 00:16:04,VALID,917.31,VALID,0,VALID,97.6255,VALID,0,VALID,19.7238,VALID,160,VALID,0,
2014-10-18, 00:17:04,VALID,917.306,VALID,0,VALID,97.656,VALID,0,VALID,19.6833,VALID,160,VALID,0,
2014-10-18, 00:18:04,VALID,917.345,VALID,0,VALID,97.6483,VALID,0,VALID,19.6248,VALID,160,VALID,0,
2014-10-18, 00:19:04,VALID,917.331,VALID,0,VALID,97.656,VALID,0,VALID,19.5858,VALID,140,VALID,0,
2014-10-18, 00:20:04,VALID,917.362,VALID,0,VALID,97.6636,VALID,0,VALID,19.5468,VALID,120,VALID,0,
2014-10-18, 00:21:04,VALID,917.37,VALID,0,VALID,97.6483,VALID,0,VALID,19.5273,VALID,120,VALID,0,
2014-10-18, 00:22:04,VALID,917.358,VALID,0,VALID,97.6483,VALID,0,VALID,19.5078,VALID,120,VALID,0,
2014-10-18, 00:23:04,VALID,917.359,VALID,0,VALID,97.6712,VALID,0,VALID,19.5273,VALID,120,VALID,0,
2014-10-18, 00:24:04,VALID,917.353,VALID,0,VALID,97.6636,VALID,0,VALID,19.5078,VALID,120,VALID,0,
2014-10-18, 00:25:04,VALID,917.292,VALID,0,VALID,97.656,VALID,0,VALID,19.4883,VALID,120,VALID,0,
2014-10-18, 00:26:04,VALID,917.306,VALID,0,VALID,97.656,VALID,0,VALID,19.5273,VALID,120,VALID,0,
2014-10-18, 00:27:04,VALID,917.289,VALID,0,VALID,97.656,VALID,0,VALID,19.5273,VALID,120,VALID,0,
2014-10-18, 00:28:04,VALID,917.261,VALID,0,VALID,97.6788,VALID,0,VALID,19.4883,VALID,120,VALID,0,
2014-10-18, 00:29:04,VALID,917.269,VALID,0,VALID,97.6712,VALID,0,VALID,19.4883,VALID,120,VALID,0,
2014-10-18, 00:30:04,VALID,917.217,VALID,0,VALID,97.6788,VALID,0,VALID,19.4688,VALID,120,VALID,0,
2014-10-18, 00:31:04,VALID,917.208,VALID,0,VALID,97.6865,VALID,0.107441,VALID,19.4688,VALID,120,VALID,0,
2014-10-18, 00:32:04,VALID,917.219,VALID,0,VALID,97.6788,VALID,0,VALID,19.4493,VALID,120,VALID,0,
2014-10-18, 00:33:04,VALID,917.191,VALID,0,VALID,97.6865,VALID,0,VALID,19.4103,VALID,120,VALID,0,
2014-10-18, 00:34:04,VALID,917.17,VALID,0,VALID,97.6941,VALID,0,VALID,19.4298,VALID,120,VALID,0,
2014-10-18, 00:35:04,VALID,917.186,VALID,0,VALID,97.6636,VALID,0,VALID,19.3908,VALID,120,VALID,0,
2014-10-18, 00:36:04,VALID,917.159,VALID,0,VALID,97.6865,VALID,0.107441,VALID,19.3908,VALID,120,VALID,0,
2014-10-18, 00:37:04,VALID,917.144,VALID,0,VALID,97.6712,VALID,0,VALID,19.4103,VALID,120,VALID,0,
2014-10-18, 00:38:04,VALID,917.144,VALID,0,VALID,97.6788,VALID,0,VALID,19.3908,VALID,120,VALID,0,
2014-10-18, 00:39:04,VALID,917.147,VALID,0,VALID,97.7017,VALID,0,VALID,19.4103,VALID,120,VALID,0,
2014-10-18, 00:40:04,VALID,917.111,VALID,0,VALID,97.6941,VALID,0,VALID,19.3713,VALID,120,VALID,0,
2014-10-18, 00:41:04,VALID,917.084,VALID,0,VALID,97.6788,VALID,0,VALID,19.3908,VALID,120,VALID,0,
2014-10-18, 00:42:04,VALID,917.086,VALID,0,VALID,97.7017,VALID,0,VALID,19.3908,VALID,120,VALID,0,
2014-10-18, 00:43:04,VALID,917.063,VALID,0,VALID,97.6941,VALID,0,VALID,19.3518,VALID,120,VALID,0,
2014-10-18, 00:44:04,VALID,917.085,VALID,0,VALID,97.6865,VALID,0,VALID,19.3908,VALID,120,VALID,0,
2014-10-18, 00:45:04,VALID,917.077,VALID,0,VALID,97.7169,VALID,0,VALID,19.3518,VALID,120,VALID,0,
2014-10-18, 00:46:04,VALID,917.055,VALID,0,VALID,97.6941,VALID,0,VALID,19.3518,VALID,120,VALID,0,
2014-10-18, 00:47:04,VALID,917.052,VALID,0,VALID,97.6941,VALID,0,VALID,19.3518,VALID,120,VALID,0,
2014-10-18, 00:48:04,VALID,917.031,VALID,0,VALID,97.6941,VALID,0,VALID,19.3323,VALID,120,VALID,0,
2014-10-18, 00:49:04,VALID,917.043,VALID,0,VALID,97.7093,VALID,0,VALID,19.3518,VALID,120,VALID,0,
2014-10-18, 00:50:04,VALID,917.036,VALID,0,VALID,97.7093,VALID,0,VALID,19.3518,VALID,120,VALID,0,
2014-10-18, 00:51:04,VALID,917.045,VALID,0,VALID,97.6865,VALID,0,VALID,19.3713,VALID,120,VALID,0,
2014-10-18, 00:52:04,VALID,917.005,VALID,0,VALID,97.6941,VALID,0,VALID,19.3713,VALID,120,VALID,0,
2014-10-18, 00:53:04,VALID,917.018,VALID,0,VALID,97.6865,VALID,0,VALID,19.3908,VALID,161,VALID,0,
2014-10-18, 00:54:04,VALID,917.006,VALID,0,VALID,97.6941,VALID,0,VALID,19.4118,VALID,162,VALID,0,
2014-10-18, 00:55:04,VALID,916.982,VALID,0,VALID,97.6941,VALID,0,VALID,19.4118,VALID,162,VALID,0,
2014-10-18, 00:56:04,VALID,916.959,VALID,0,VALID,97.7017,VALID,0,VALID,19.3908,VALID,162,VALID,0,
2014-10-18, 00:57:04,VALID,916.931,VALID,0,VALID,97.7093,VALID,0,VALID,19.4298,VALID,162,VALID,0,
2014-10-18, 00:58:04,VALID,916.934,VALID,0,VALID,97.6941,VALID,0,VALID,19.4493,VALID,162,VALID,0,
2014-10-18, 00:59:04,VALID,916.912,VALID,0,VALID,97.6941,VALID,0,VALID,19.4298,VALID,162,VALID,0,
2014-10-18, 01:00:04,VALID,916.868,VALID,0,VALID,97.6941,VALID,0,VALID,19.4703,VALID,162,VALID,0,
2014-10-18, 01:01:04,VALID,916.88,VALID,0,VALID,97.6788,VALID,0,VALID,19.4493,VALID,162,VALID,0,
2014-10-18, 01:02:04,VALID,916.852,VALID,0,VALID,97.6865,VALID,0,VALID,19.4493,VALID,162,VALID,0,
2014-10-18, 01:03:04,VALID,916.833,VALID,0,VALID,97.6788,VALID,0,VALID,19.4688,VALID,162,VALID,0,
2014-10-18, 01:04:04,VALID,916.826,VALID,0,VALID,97.6788,VALID,0,VALID,19.5093,VALID,162,VALID,0,
2014-10-18, 01:05:04,VALID,916.835,VALID,0,VALID,97.7017,VALID,0,VALID,19.5078,VALID,162,VALID,0,
2014-10-18, 01:06:04,VALID,916.803,VALID,0,VALID,97.7093,VALID,0,VALID,19.5093,VALID,162,VALID,0,
2014-10-18, 01:07:04,VALID,916.824,VALID,0,VALID,97.7017,VALID,0,VALID,19.4883,VALID,162,VALID,0,
2014-10-18, 01:08:04,VALID,916.816,VALID,0,VALID,97.6788,VALID,0,VALID,19.5078,VALID,162,VALID,0,
2014-10-18, 01:09:04,VALID,916.757,VALID,0,VALID,97.7017,VALID,0,VALID,19.5078,VALID,162,VALID,0,
2014-10-18, 01:10:04,VALID,916.791,VALID,0,VALID,97.6788,VALID,0,VALID,19.5468,VALID,162,VALID,0,
2014-10-18, 01:11:04,VALID,916.75,VALID,0,VALID,97.6788,VALID,0,VALID,19.5468,VALID,162,VALID,0,
2014-10-18, 01:12:04,VALID,916.767,VALID,0,VALID,97.6865,VALID,0,VALID,19.5273,VALID,162,VALID,0,
2014-10-18, 01:13:04,VALID,916.737,VALID,0,VALID,97.7017,VALID,0,VALID,19.5078,VALID,162,VALID,0,
2014-10-18, 01:14:04,VALID,916.75,VALID,0,VALID,97.6941,VALID,0,VALID,19.5078,VALID,162,VALID,0,
2014-10-18, 01:15:04,VALID,916.712,VALID,0,VALID,97.6941,VALID,0.107441,VALID,19.5468,VALID,162,VALID,0,
2014-10-18, 01:16:04,VALID,916.72,VALID,0,VALID,97.6636,VALID,0,VALID,19.5663,VALID,162,VALID,0,
2014-10-18, 01:17:04,VALID,916.695,VALID,0,VALID,97.6788,VALID,0,VALID,19.5858,VALID,162,VALID,0,
2014-10-18, 01:18:04,VALID,916.685,VALID,0,VALID,97.7017,VALID,0,VALID,19.5273,VALID,162,VALID,0,
2014-10-18, 01:19:04,VALID,916.662,VALID,0,VALID,97.6941,VALID,0,VALID,19.5078,VALID,162,VALID,0,
2014-10-18, 01:20:04,VALID,916.626,VALID,0,VALID,97.6941,VALID,0,VALID,19.5288,VALID,162,VALID,0,
2014-10-18, 01:21:04,VALID,916.619,VALID,0,VALID,97.6941,VALID,0,VALID,19.5663,VALID,162,VALID,0,
2014-10-18, 01:22:04,VALID,916.614,VALID,0,VALID,97.6788,VALID,0,VALID,19.6053,VALID,162,VALID,0,
2014-10-18, 01:23:04,VALID,916.609,VALID,0,VALID,97.6712,VALID,0.107441,VALID,19.6053,VALID,162,VALID,0,
2014-10-18, 01:24:04,VALID,916.575,VALID,0,VALID,97.6712,VALID,0.107441,VALID,19.6053,VALID,162,VALID,0,
2014-10-18, 01:25:04,VALID,916.576,VALID,0,VALID,97.6865,VALID,0,VALID,19.5858,VALID,162,VALID,0,
2014-10-18, 01:26:04,VALID,916.58,VALID,0,VALID,97.6788,VALID,0,VALID,19.6248,VALID,162,VALID,0,
2014-10-18, 01:27:04,VALID,916.519,VALID,0,VALID,97.6712,VALID,0,VALID,19.6443,VALID,162,VALID,0,
2014-10-18, 01:28:04,VALID,916.548,VALID,0,VALID,97.6788,VALID,0,VALID,19.6638,VALID,162,VALID,0,
2014-10-18, 01:29:04,VALID,916.525,VALID,0,VALID,97.6788,VALID,0,VALID,19.6428,VALID,162,VALID,0,
2014-10-18, 01:30:04,VALID,916.511,VALID,0,VALID,97.6788,VALID,0,VALID,19.6638,VALID,162,VALID,0,
2014-10-18, 01:31:04,VALID,916.491,VALID,0,VALID,97.6712,VALID,0,VALID,19.6833,VALID,162,VALID,0,
2014-10-18, 01:32:04,VALID,916.501,VALID,0,VALID,97.6788,VALID,0,VALID,19.6248,VALID,162,VALID,0,
2014-10-18, 01:33:04,VALID,916.489,VALID,0,VALID,97.6941,VALID,0,VALID,19.6053,VALID,162,VALID,0,
2014-10-18, 01:34:04,VALID,916.437,VALID,0,VALID,97.7093,VALID,0,VALID,19.5858,VALID,162,VALID,0,
2014-10-18, 01:35:04,VALID,916.396,VALID,0,VALID,97.7093,VALID,0,VALID,19.6053,VALID,162,VALID,0,
2014-10-18, 01:36:04,VALID,916.404,VALID,0,VALID,97.7017,VALID,0,VALID,19.6053,VALID,162,VALID,0,
2014-10-18, 01:37:04,VALID,916.396,VALID,0,VALID,97.6788,VALID,0,VALID,19.5843,VALID,162,VALID,0,
2014-10-18, 01:38:04,VALID,916.376,VALID,0,VALID,97.6865,VALID,0.107441,VALID,19.6053,VALID,162,VALID,0,
2014-10-18, 01:39:04,VALID,916.392,VALID,0,VALID,97.6941,VALID,0,VALID,19.6248,VALID,162,VALID,0,
2014-10-18, 01:40:04,VALID,916.373,VALID,0,VALID,97.6941,VALID,0,VALID,19.6248,VALID,162,VALID,0,
2014-10-18, 01:41:04,VALID,916.38,VALID,0,VALID,97.7017,VALID,0,VALID,19.6248,VALID,162,VALID,0,
2014-10-18, 01:42:04,VALID,916.366,VALID,0,VALID,97.6865,VALID,0,VALID,19.6248,VALID,162,VALID,0,
2014-10-18, 01:43:04,VALID,916.354,VALID,0,VALID,97.6941,VALID,0,VALID,19.6248,VALID,162,VALID,0,
2014-10-18, 01:44:04,VALID,916.37,VALID,0,VALID,97.7017,VALID,0,VALID,19.6248,VALID,162,VALID,0,
2014-10-18, 01:45:04,VALID,916.36,VALID,0,VALID,97.7093,VALID,0,VALID,19.6248,VALID,162,VALID,0,
2014-10-18, 01:46:04,VALID,916.378,VALID,0,VALID,97.6788,VALID,0,VALID,19.6638,VALID,162,VALID,0,
2014-10-18, 01:47:04,VALID,916.362,VALID,0,VALID,97.7093,VALID,0,VALID,19.6443,VALID,162,VALID,0,
2014-10-18, 01:48:04,VALID,916.381,VALID,0,VALID,97.7017,VALID,0,VALID,19.6053,VALID,162,VALID,0,
2014-10-18, 01:49:04,VALID,916.4,VALID,0,VALID,97.7093,VALID,0,VALID,19.5858,VALID,162,VALID,0,
2014-10-18, 01:50:04,VALID,916.419,VALID,0,VALID,97.7322,VALID,0,VALID,19.5873,VALID,162,VALID,0,
2014-10-18, 01:51:04,VALID,916.396,VALID,0,VALID,97.7246,VALID,0.107441,VALID,19.5468,VALID,162,VALID,0,
2014-10-18, 01:52:04,VALID,916.402,VALID,0,VALID,97.7093,VALID,0,VALID,19.5468,VALID,145,VALID,0,
2014-10-18, 01:53:04,VALID,916.366,VALID,0,VALID,97.7169,VALID,0,VALID,19.5273,VALID,120,VALID,0,
2014-10-18, 01:54:04,VALID,916.377,VALID,0,VALID,97.7322,VALID,0,VALID,19.5078,VALID,120,VALID,0,
2014-10-18, 01:55:04,VALID,916.374,VALID,0,VALID,97.7246,VALID,0,VALID,19.4883,VALID,120,VALID,0,
2014-10-18, 01:56:04,VALID,916.352,VALID,0,VALID,97.7322,VALID,0,VALID,19.5288,VALID,120,VALID,0,
2014-10-18, 01:57:04,VALID,916.347,VALID,0,VALID,97.7246,VALID,0,VALID,19.4883,VALID,120,VALID,0,
2014-10-18, 01:58:04,VALID,916.3,VALID,0,VALID,97.7169,VALID,0,VALID,19.4493,VALID,120,VALID,0,
2014-10-18, 01:59:04,VALID,916.266,VALID,0,VALID,97.7246,VALID,0,VALID,19.4298,VALID,120,VALID,0,
2014-10-18, 02:00:04,VALID,916.236,VALID,0,VALID,97.7474,VALID,0,VALID,19.4313,VALID,121,VALID,0,
2014-10-18, 02:01:04,VALID,916.24,VALID,0,VALID,97.7398,VALID,0,VALID,19.4103,VALID,120,VALID,0,
2014-10-18, 02:02:04,VALID,916.169,VALID,0,VALID,97.7474,VALID,0,VALID,19.4103,VALID,121,VALID,0,
2014-10-18, 02:03:04,VALID,916.165,VALID,0,VALID,97.7322,VALID,0,VALID,19.4103,VALID,121,VALID,0,
2014-10-18, 02:04:04,VALID,916.148,VALID,0,VALID,97.7474,VALID,0,VALID,19.4103,VALID,121,VALID,0,
2014-10-18, 02:05:04,VALID,916.173,VALID,0,VALID,97.7627,VALID,0,VALID,19.3908,VALID,121,VALID,0,
2014-10-18, 02:06:04,VALID,916.115,VALID,0,VALID,97.7398,VALID,0,VALID,19.3923,VALID,121,VALID,0,
2014-10-18, 02:07:04,VALID,916.13,VALID,0,VALID,97.7474,VALID,0,VALID,19.3713,VALID,121,VALID,0,
2014-10-18, 02:08:04,VALID,916.111,VALID,0,VALID,97.7627,VALID,0.107441,VALID,19.3713,VALID,121,VALID,0,
2014-10-18, 02:09:04,VALID,916.092,VALID,0,VALID,97.7398,VALID,0,VALID,19.3518,VALID,121,VALID,0,
2014-10-18, 02:10:04,VALID,916.072,VALID,0,VALID,97.7474,VALID,0,VALID,19.3323,VALID,121,VALID,0,
2014-10-18, 02:11:04,VALID,916.093,VALID,0,VALID,97.7474,VALID,0,VALID,19.3323,VALID,121,VALID,0,
2014-10-18, 02:12:04,VALID,916.069,VALID,0,VALID,97.7474,VALID,0,VALID,19.3338,VALID,121,VALID,0,
2014-10-18, 02:13:04,VALID,916.065,VALID,0,VALID,97.7551,VALID,0,VALID,19.2933,VALID,121,VALID,0,
2014-10-18, 02:14:04,VALID,916.049,VALID,0,VALID,97.7703,VALID,0,VALID,19.2948,VALID,121,VALID,0,
2014-10-18, 02:15:04,VALID,916.053,VALID,0,VALID,97.7551,VALID,0,VALID,19.2543,VALID,121,VALID,0,
2014-10-18, 02:16:04,VALID,916.05,VALID,0,VALID,97.7703,VALID,0,VALID,19.2543,VALID,121,VALID,0,
2014-10-18, 02:17:04,VALID,916.05,VALID,0,VALID,97.7398,VALID,0,VALID,19.2738,VALID,121,VALID,0,
2014-10-18, 02:18:04,VALID,916.035,VALID,0,VALID,97.7474,VALID,0,VALID,19.2948,VALID,121,VALID,0,
2014-10-18, 02:19:04,VALID,916.046,VALID,0,VALID,97.7627,VALID,0,VALID,19.2543,VALID,121,VALID,0,
2014-10-18, 02:20:04,VALID,916.065,VALID,0,VALID,97.7551,VALID,0,VALID,19.2753,VALID,121,VALID,0,
2014-10-18, 02:21:04,VALID,916.027,VALID,0,VALID,97.7474,VALID,0,VALID,19.2738,VALID,126,VALID,0,
2014-10-18, 02:22:04,VALID,915.993,VALID,0,VALID,97.7551,VALID,0,VALID,19.2738,VALID,126,VALID,0,
2014-10-18, 02:23:04,VALID,916.004,VALID,0,VALID,97.7627,VALID,0,VALID,19.2753,VALID,126,VALID,0,
2014-10-18, 02:24:04,VALID,915.979,VALID,0,VALID,97.7627,VALID,0,VALID,19.2558,VALID,126,VALID,0,
2014-10-18, 02:25:04,VALID,916.011,VALID,0,VALID,97.7551,VALID,0,VALID,19.2363,VALID,126,VALID,0,
2014-10-18, 02:26:04,VALID,916.004,VALID,0,VALID,97.7703,VALID,0,VALID,19.2363,VALID,126,VALID,0,
2014-10-18, 02:27:04,VALID,915.984,VALID,0,VALID,97.7703,VALID,0,VALID,19.2363,VALID,126,VALID,0,
2014-10-18, 02:28:04,VALID,915.988,VALID,0,VALID,97.7551,VALID,0,VALID,19.2558,VALID,129,VALID,0,
2014-10-18, 02:29:04,VALID,915.979,VALID,0,VALID,97.7703,VALID,0,VALID,19.2543,VALID,136,VALID,0,
2014-10-18, 02:30:04,VALID,915.975,VALID,0,VALID,97.7322,VALID,0,VALID,19.2738,VALID,161,VALID,0,
2014-10-18, 02:31:04,VALID,915.962,VALID,0,VALID,97.7322,VALID,0,VALID,19.3143,VALID,161,VALID,0,
2014-10-18, 02:32:04,VALID,915.98,VALID,0,VALID,97.7551,VALID,0,VALID,19.3533,VALID,161,VALID,0,
2014-10-18, 02:33:04,VALID,915.973,VALID,0,VALID,97.7322,VALID,0,VALID,19.3518,VALID,161,VALID,0,
2014-10-18, 02:34:04,VALID,915.96,VALID,0,VALID,97.7398,VALID,0,VALID,19.3923,VALID,161,VALID,0,
2014-10-18, 02:35:04,VALID,915.996,VALID,0,VALID,97.7322,VALID,0,VALID,19.3713,VALID,161,VALID,0,
2014-10-18, 02:36:04,VALID,915.987,VALID,0,VALID,97.7551,VALID,0,VALID,19.4118,VALID,161,VALID,0,
2014-10-18, 02:37:04,VALID,915.999,VALID,0,VALID,97.7246,VALID,0,VALID,19.3923,VALID,161,VALID,0,
2014-10-18, 02:38:04,VALID,916.015,VALID,0,VALID,97.7398,VALID,0,VALID,19.3923,VALID,161,VALID,0,
2014-10-18, 02:39:04,VALID,916.005,VALID,0,VALID,97.7322,VALID,0,VALID,19.3728,VALID,161,VALID,0,
2014-10-18, 02:40:04,VALID,916.019,VALID,0,VALID,97.7551,VALID,0,VALID,19.3518,VALID,161,VALID,0,
2014-10-18, 02:41:04,VALID,916.021,VALID,0,VALID,97.7551,VALID,0,VALID,19.3728,VALID,161,VALID,0,
2014-10-18, 02:42:04,VALID,916.049,VALID,0,VALID,97.7551,VALID,0,VALID,19.3923,VALID,161,VALID,0,
2014-10-18, 02:43:04,VALID,916.039,VALID,0,VALID,97.7474,VALID,0,VALID,19.3923,VALID,161,VALID,0,
2014-10-18, 02:44:04,VALID,916.064,VALID,0,VALID,97.7322,VALID,0,VALID,19.3323,VALID,161,VALID,0,
2014-10-18, 02:45:04,VALID,916.054,VALID,0,VALID,97.7703,VALID,0,VALID,19.3728,VALID,161,VALID,0,
2014-10-18, 02:46:04,VALID,916.077,VALID,0,VALID,97.7551,VALID,0,VALID,19.3713,VALID,161,VALID,0,
2014-10-18, 02:47:04,VALID,916.049,VALID,0,VALID,97.7551,VALID,0,VALID,19.3518,VALID,161,VALID,0,
2014-10-18, 02:48:04,VALID,916.034,VALID,0,VALID,97.7779,VALID,0,VALID,19.3518,VALID,161,VALID,0,
2014-10-18, 02:49:04,VALID,916.036,VALID,0,VALID,97.7398,VALID,0,VALID,19.3713,VALID,161,VALID,0,
2014-10-18, 02:50:04,VALID,916.042,VALID,0,VALID,97.7551,VALID,0,VALID,19.3518,VALID,161,VALID,0,
2014-10-18, 02:51:04,VALID,915.994,VALID,0,VALID,97.7703,VALID,0,VALID,19.3728,VALID,161,VALID,0,
2014-10-18, 02:52:04,VALID,915.977,VALID,0,VALID,97.7627,VALID,0,VALID,19.3128,VALID,161,VALID,0,
2014-10-18, 02:53:04,VALID,915.947,VALID,0,VALID,97.7856,VALID,0,VALID,19.2753,VALID,137,VALID,0,
2014-10-18, 02:54:04,VALID,915.973,VALID,0,VALID,97.7932,VALID,0,VALID,19.2168,VALID,135,VALID,0,
2014-10-18, 02:55:04,VALID,915.948,VALID,0,VALID,97.7856,VALID,0,VALID,19.1973,VALID,135,VALID,0,
2014-10-18, 02:56:04,VALID,915.91,VALID,0,VALID,97.7779,VALID,0,VALID,19.1568,VALID,122,VALID,0,
2014-10-18, 02:57:04,VALID,915.88,VALID,0,VALID,97.7932,VALID,0,VALID,19.1373,VALID,122,VALID,0,
2014-10-18, 02:58:04,VALID,915.899,VALID,0,VALID,97.8008,VALID,0,VALID,19.1583,VALID,122,VALID,0,
2014-10-18, 02:59:04,VALID,915.908,VALID,0,VALID,97.8084,VALID,0,VALID,19.1583,VALID,122,VALID,0,
2014-10-18, 03:00:04,VALID,915.89,VALID,0,VALID,97.8084,VALID,0.107441,VALID,19.1373,VALID,122,VALID,0,
2014-10-18, 03:01:04,VALID,915.888,VALID,0,VALID,97.7856,VALID,0,VALID,19.1193,VALID,122,VALID,0,
2014-10-18, 03:02:04,VALID,915.901,VALID,0,VALID,97.8008,VALID,0,VALID,19.1178,VALID,122,VALID,0,
2014-10-18, 03:03:04,VALID,915.895,VALID,0,VALID,97.7932,VALID,0,VALID,19.1583,VALID,122,VALID,0,
2014-10-18, 03:04:04,VALID,915.896,VALID,0,VALID,97.7856,VALID,0,VALID,19.1778,VALID,122,VALID,0,
2014-10-18, 03:05:04,VALID,915.906,VALID,0,VALID,97.7703,VALID,0.107441,VALID,19.1778,VALID,122,VALID,0,
2014-10-18, 03:06:04,VALID,915.901,VALID,0,VALID,97.7932,VALID,0,VALID,19.1568,VALID,122,VALID,0,
2014-10-18, 03:07:04,VALID,915.895,VALID,0,VALID,97.7932,VALID,0,VALID,19.1763,VALID,122,VALID,0,
2014-10-18, 03:08:04,VALID,915.934,VALID,0,VALID,97.7932,VALID,0,VALID,19.1568,VALID,122,VALID,0,
2014-10-18, 03:09:04,VALID,915.928,VALID,0,VALID,97.7932,VALID,0,VALID,19.1778,VALID,122,VALID,0,
2014-10-18, 03:10:04,VALID,915.897,VALID,0,VALID,97.7856,VALID,0,VALID,19.1763,VALID,122,VALID,0,
2014-10-18, 03:11:04,VALID,915.915,VALID,0,VALID,97.7932,VALID,0,VALID,19.1958,VALID,121,VALID,0,
2014-10-18, 03:12:04,VALID,915.934,VALID,0,VALID,97.8008,VALID,0,VALID,19.1958,VALID,122,VALID,0,
2014-10-18, 03:13:04,VALID,915.93,VALID,0,VALID,97.7932,VALID,0,VALID,19.2153,VALID,122,VALID,0,
2014-10-18, 03:14:04,VALID,915.959,VALID,0,VALID,97.7551,VALID,0,VALID,19.2348,VALID,121,VALID,0,
2014-10-18, 03:15:04,VALID,915.968,VALID,0,VALID,97.7474,VALID,0,VALID,19.2753,VALID,122,VALID,0,
2014-10-18, 03:16:04,VALID,916.001,VALID,0,VALID,97.7856,VALID,0,VALID,19.2738,VALID,122,VALID,0,
2014-10-18, 03:17:04,VALID,915.983,VALID,0,VALID,97.7627,VALID,0,VALID,19.2948,VALID,122,VALID,0,
2014-10-18, 03:18:04,VALID,915.995,VALID,0,VALID,97.7703,VALID,0,VALID,19.2738,VALID,122,VALID,0,
2014-10-18, 03:19:04,VALID,916.007,VALID,0,VALID,97.7856,VALID,0.107441,VALID,19.2933,VALID,122,VALID,0,
2014-10-18, 03:20:04,VALID,915.984,VALID,0,VALID,97.7627,VALID,0.107441,VALID,19.2933,VALID,122,VALID,0,
2014-10-18, 03:21:04,VALID,915.969,VALID,0,VALID,97.7703,VALID,0,VALID,19.2948,VALID,122,VALID,0,
2014-10-18, 03:22:04,VALID,916.001,VALID,0,VALID,97.7779,VALID,0,VALID,19.2933,VALID,122,VALID,0,
2014-10-18, 03:23:04,VALID,915.981,VALID,0,VALID,97.7627,VALID,0,VALID,19.3128,VALID,122,VALID,0,
2014-10-18, 03:24:04,VALID,916.009,VALID,0,VALID,97.7627,VALID,0,VALID,19.3323,VALID,122,VALID,0,
2014-10-18, 03:25:04,VALID,916.003,VALID,0,VALID,97.7474,VALID,0,VALID,19.3128,VALID,122,VALID,0,
2014-10-18, 03:26:04,VALID,916.008,VALID,0,VALID,97.7551,VALID,0,VALID,19.3128,VALID,122,VALID,0,
2014-10-18, 03:27:04,VALID,916.008,VALID,0,VALID,97.7627,VALID,0,VALID,19.3128,VALID,122,VALID,0,
2014-10-18, 03:28:04,VALID,916.024,VALID,0,VALID,97.7703,VALID,0,VALID,19.3323,VALID,122,VALID,0,
2014-10-18, 03:29:04,VALID,915.999,VALID,0,VALID,97.7627,VALID,0,VALID,19.3728,VALID,122,VALID,0,
2014-10-18, 03:30:04,VALID,916.033,VALID,0,VALID,97.7551,VALID,0,VALID,19.3923,VALID,122,VALID,0,
2014-10-18, 03:31:04,VALID,916.027,VALID,0,VALID,97.7703,VALID,0,VALID,19.3728,VALID,122,VALID,0,
2014-10-18, 03:32:04,VALID,916.049,VALID,0,VALID,97.7551,VALID,0,VALID,19.3728,VALID,122,VALID,0,
2014-10-18, 03:33:04,VALID,916.068,VALID,0,VALID,97.7474,VALID,0,VALID,19.3728,VALID,122,VALID,0,
2014-10-18, 03:34:04,VALID,916.058,VALID,0,VALID,97.7856,VALID,0,VALID,19.3338,VALID,122,VALID,0,
2014-10-18, 03:35:04,VALID,916.047,VALID,0,VALID,97.7856,VALID,0,VALID,19.3338,VALID,122,VALID,0,
2014-10-18, 03:36:04,VALID,916.062,VALID,0,VALID,97.7627,VALID,0,VALID,19.3338,VALID,122,VALID,0,
2014-10-18, 03:37:04,VALID,916.05,VALID,0,VALID,97.7474,VALID,0,VALID,19.3323,VALID,122,VALID,0,
2014-10-18, 03:38:04,VALID,916.043,VALID,0,VALID,97.7627,VALID,0,VALID,19.3533,VALID,122,VALID,0,
2014-10-18, 03:39:04,VALID,916.049,VALID,0,VALID,97.7703,VALID,0,VALID,19.3128,VALID,122,VALID,0,
2014-10-18, 03:40:04,VALID,916.029,VALID,0,VALID,97.7932,VALID,0,VALID,19.2543,VALID,122,VALID,0,
2014-10-18, 03:41:04,VALID,916.065,VALID,0,VALID,97.7856,VALID,0,VALID,19.2543,VALID,122,VALID,0,
2014-10-18, 03:42:04,VALID,916.04,VALID,0,VALID,97.7856,VALID,0,VALID,19.2153,VALID,122,VALID,0,
2014-10-18, 03:43:04,VALID,916.018,VALID,0,VALID,97.816,VALID,0,VALID,19.1568,VALID,122,VALID,0,
2014-10-18, 03:44:04,VALID,916.016,VALID,0,VALID,97.8313,VALID,0,VALID,19.1178,VALID,122,VALID,0,
2014-10-18, 03:45:04,VALID,916.019,VALID,0,VALID,97.816,VALID,0,VALID,19.1193,VALID,122,VALID,0,
2014-10-18, 03:46:04,VALID,916.014,VALID,0,VALID,97.8008,VALID,0,VALID,19.0983,VALID,122,VALID,0,
2014-10-18, 03:47:04,VALID,915.997,VALID,0,VALID,97.8237,VALID,0,VALID,19.0998,VALID,122,VALID,0,
2014-10-18, 03:48:04,VALID,916.017,VALID,0,VALID,97.8389,VALID,0,VALID,19.0008,VALID,122,VALID,0,
2014-10-18, 03:49:04,VALID,915.986,VALID,0,VALID,97.8389,VALID,0,VALID,18.9828,VALID,122,VALID,0,
2014-10-18, 03:50:04,VALID,916.012,VALID,0,VALID,97.8465,VALID,0,VALID,18.9619,VALID,122,VALID,0,
2014-10-18, 03:51:04,VALID,915.966,VALID,0,VALID,97.8313,VALID,0,VALID,18.9828,VALID,122,VALID,0,
2014-10-18, 03:52:04,VALID,915.965,VALID,0,VALID,97.8389,VALID,0,VALID,18.9814,VALID,122,VALID,0,
2014-10-18, 03:53:04,VALID,915.959,VALID,0,VALID,97.8389,VALID,0,VALID,19.0413,VALID,122,VALID,0,
2014-10-18, 03:54:04,VALID,915.981,VALID,0,VALID,97.8313,VALID,0,VALID,19.0608,VALID,122,VALID,0,
2014-10-18, 03:55:04,VALID,915.976,VALID,0,VALID,97.8084,VALID,0,VALID,19.0998,VALID,122,VALID,0,
2014-10-18, 03:56:04,VALID,916.008,VALID,0,VALID,97.816,VALID,0,VALID,19.1583,VALID,122,VALID,0,
2014-10-18, 03:57:04,VALID,916.017,VALID,0,VALID,97.816,VALID,0,VALID,19.1778,VALID,122,VALID,0,
2014-10-18, 03:58:04,VALID,916.026,VALID,0,VALID,97.7932,VALID,0,VALID,19.1778,VALID,122,VALID,0,
2014-10-18, 03:59:04,VALID,915.991,VALID,0,VALID,97.816,VALID,0,VALID,19.1973,VALID,122,VALID,0,